COSMOS 2527 (756)

Last updated on Sun Oct 26 2025 00:03:29 GMT+0000 (Coordinated Universal Time)

1 43508U 18053A 25297.51554903 .00000016 00000+0 00000+0 0 9999 2 43508 65.4465 81.7763 0007859 215.4922 144.4452 2.13102255 57252
UTC large
Height (km)
Speed (km/s)
/
Latitude / Longitude
Inclination (degrees)
Orbital Period (minutes)
Azimuth
Elevation
Range (km)
Doppler Factor

Next 0 passes for location: London (51.5072 / 0.1276)

Sorry there are no passes over London.